Location: Aalsum
(53.3404°N, 6.0062°E)
Time: 10:03:17
(UTC+00:00)

ATLAS 5 CENTAUR R/B - Pass Details

Date: 28 January 2023
Orbit: 460 x 1178 km, 63.3° (Epoch: 19 March)

Event Time Altitude Azimuth Distance (km) Brightness Sun altitude
Rises 18:57:01 0° 273° (W) 2,615 6.2 -24.6°
Reaches altitude 10° 18:59:17 10° 286° (WNW) 1,801 4.9 -24.9°
Maximum altitude 19:02:45 27° 346° (NNW) 1,161 3.1 -25.4°
Enters shadow 19:03:06 27° 354° (N) 1,181 3.0 -25.5°
